Location: Unspecified
(22.6800°N, 112.2000°E)
Time: 00:51:29
(UTC+08:00)

Courier 1B Rocket - Pass Details

Date: 02 August 2021
Orbit: 920 x 1202 km, 28.3° (Epoch: 17 September)

Event Time Altitude Azimuth Distance (km) Brightness Sun altitude
Exits shadow 03:09:21 50° 23° (NNE) 1,198 5.6 -35.1°
Drops below altitude 10° 03:14:39 10° 71° (ENE) 2,636 7.9 -34.2°
Sets 03:17:17 0° 76° (ENE) 3,562 8.8 -33.8°
